VA6ATA-15 Weather Reports


Display with metric or nautical units.
time (UTC)temp
F
wind
direction
speed
MPH
gust
MPH
rain 1hr
in
rain 24hr
in
rain mn
in
humidity
%
barometer
mb
20260902004654 77 124 3.0 6.0 0.00 0.00 0.00 31 1007.3
20260902004153 77 100 2.0 3.0 0.00 0.00 0.00 31 1007.3
20260902003654 77 152 3.0 4.0 0.00 0.00 0.00 31 1007.4
20260902003154 77 96 6.0 11.0 0.00 0.00 0.00 31 1007.3
20260902002653 77 115 4.0 6.0 0.00 0.00 0.00 32 1007.4
20260902002153 77 124 4.0 7.0 0.00 0.00 0.00 31 1007.4
20260902001653 78 114 4.0 6.0 0.00 0.00 0.00 31 1007.4
20260902001154 78 115 5.0 8.0 0.00 0.00 0.00 31 1007.5
20260902000653 78 89 6.0 9.0 0.00 0.00 0.00 31 1007.5
20260902000155 78 127 5.0 9.0 0.00 0.00 0.00 31 1007.5
20260901235653 78 158 3.0 4.0 0.00 0.00 0.00 31 1007.5
20260901235154 78 90 5.0 9.0 0.00 0.00 0.00 30 1007.5
20260901234654 78 107 6.0 9.0 0.00 0.00 0.00 30 1007.5
20260901234154 78 96 5.0 9.0 0.00 0.00 0.00 31 1007.5
20260901233654 77 100 5.0 9.0 0.00 0.00 0.00 31 1007.5
20260901233153 77 93 5.0 9.0 0.00 0.00 0.00 31 1007.6
20260901232654 78 100 4.0 8.0 0.00 0.00 0.00 31 1007.6
20260901232153 78 138 2.0 4.0 0.00 0.00 0.00 32 1007.6
20260901231655 78 118 4.0 7.0 0.00 0.00 0.00 32 1007.7
20260901231153 78 113 3.0 5.0 0.00 0.00 0.00 31 1007.7
20260901230653 77 119 6.0 8.0 0.00 0.00 0.00 30 1007.7
20260901230153 77 74 3.0 5.0 0.00 0.00 0.00 32 1007.8
20260901225656 77 115 3.0 5.0 0.00 0.00 0.00 32 1007.8
20260901225153 77 121 4.0 7.0 0.00 0.00 0.00 33 1007.8
20260901224654 77 95 6.0 8.0 0.00 0.00 0.00 32 1007.8
20260901224153 77 120 4.0 7.0 0.00 0.00 0.00 32 1007.9
20260901223654 77 101 3.0 5.0 0.00 0.00 0.00 32 1007.9
20260901223153 77 102 4.0 8.0 0.00 0.00 0.00 32 1008.1
20260901222654 77 140 4.0 6.0 0.00 0.00 0.00 32 1008.2
20260901222154 77 124 4.0 8.0 0.00 0.00 0.00 32 1008.2
20260901221653 77 136 4.0 6.0 0.00 0.00 0.00 32 1008.2
20260901221154 77 95 7.0 11.0 0.00 0.00 0.00 32 1008.3
20260901220654 77 111 3.0 6.0 0.00 0.00 0.00 32 1008.4
20260901220155 77 93 3.0 5.0 0.00 0.00 0.00 32 1008.4
20260901215653 77 105 3.0 4.0 0.00 0.00 0.00 33 1008.5
20260901215153 77 114 5.0 8.0 0.00 0.00 0.00 33 1008.5
20260901214653 77 71 7.0 9.0 0.00 0.00 0.00 32 1008.5
20260901214153 77 106 5.0 8.0 0.00 0.00 0.00 33 1008.6
20260901213654 77 100 7.0 11.0 0.00 0.00 0.00 32 1008.7
20260901213153 77 76 8.0 10.0 0.00 0.00 0.00 32 1008.7
20260901212653 76 122 5.0 9.0 0.00 0.00 0.00 33 1008.7
20260901212153 76 91 7.0 9.0 0.00 0.00 0.00 33 1008.8
20260901211655 76 168 6.0 9.0 0.00 0.00 0.00 33 1008.8
20260901211153 76 90 7.0 9.0 0.00 0.00 0.00 34 1008.7
20260901210653 76 87 9.0 12.0 0.00 0.00 0.00 34 1008.8
20260901210154 77 87 5.0 7.0 0.00 0.00 0.00 34 1008.9
20260901205654 77 125 4.0 6.0 0.00 0.00 0.00 33 1009.1
20260901205153 77 126 5.0 7.0 0.00 0.00 0.00 33 1009.2
20260901204653 76 156 2.0 4.0 0.00 0.00 0.00 34 1009.2
20260901204154 76 100 3.0 5.0 0.00 0.00 0.00 35 1009.3
20260901203654 76 164 3.0 5.0 0.00 0.00 0.00 34 1009.3
20260901203154 76 90 4.0 7.0 0.00 0.00 0.00 36 1009.4
20260901202653 76 110 4.0 7.0 0.00 0.00 0.00 36 1009.4
20260901202153 77 113 5.0 7.0 0.00 0.00 0.00 35 1009.4
20260901201653 76 198 2.0 3.0 0.00 0.00 0.00 34 1009.4
20260901201154 77 96 4.0 9.0 0.00 0.00 0.00 33 1009.5
20260901200653 75 79 2.0 3.0 0.00 0.00 0.00 33 1009.5
20260901200154 75 242 4.0 6.0 0.00 0.00 0.00 35 1009.4
20260901195653 75 90 4.0 5.0 0.00 0.00 0.00 37 1009.6
20260901195154 74 89 2.0 5.0 0.00 0.00 0.00 38 1009.6
20260901194653 74 78 3.0 4.0 0.00 0.00 0.00 39 1009.6
20260901194153 74 75 5.0 8.0 0.00 0.00 0.00 39 1009.7
20260901193655 74 85 4.0 5.0 0.00 0.00 0.00 40 1009.8
20260901193158 74 94 4.0 6.0 0.00 0.00 0.00 39 1009.8
20260901192654 74 77 4.0 7.0 0.00 0.00 0.00 39 1009.8
20260901192153 74 98 3.0 6.0 0.00 0.00 0.00 38 1009.9
20260901191654 74 84 4.0 6.0 0.00 0.00 0.00 37 1009.9
20260901191154 74 103 1.0 4.0 0.00 0.00 0.00 37 1010.1
20260901190655 73 184 3.0 4.0 0.00 0.00 0.00 40 1010.3
20260901185655 73 155 4.0 6.0 0.00 0.00 0.00 38 1010.3
20260901185154 72 102 4.0 7.0 0.00 0.00 0.00 37 1010.3
20260901184654 72 128 2.0 4.0 0.00 0.00 0.00 38 1010.3
20260901184154 71 74 5.0 7.0 0.00 0.00 0.00 39 1010.4
20260901183653 71 95 3.0 4.0 0.00 0.00 0.00 39 1010.4
20260901183153 71 89 4.0 7.0 0.00 0.00 0.00 41 1010.5
20260901182653 71 70 3.0 4.0 0.00 0.00 0.00 41 1010.6
20260901182154 71 88 3.0 5.0 0.00 0.00 0.00 41 1010.6
20260901181653 71 92 5.0 7.0 0.00 0.00 0.00 41 1010.6
20260901181154 70 225 1.0 2.0 0.00 0.00 0.00 41 1010.6
20260901180655 70 58 3.0 5.0 0.00 0.00 0.00 44 1010.7
20260901180154 70 141 1.0 1.0 0.00 0.00 0.00 43 1010.7
20260901175653 69 113 1.0 4.0 0.00 0.00 0.00 45 1010.8
20260901175153 70 68 3.0 5.0 0.00 0.00 0.00 44 1011.0
20260901174654 69 49 2.0 3.0 0.00 0.00 0.00 46 1011.0
20260901174153 69 23 1.0 3.0 0.00 0.00 0.00 45 1011.1
20260901173655 69 355 1.0 3.0 0.00 0.00 0.00 46 1011.1
20260901173154 69 337 2.0 3.0 0.00 0.00 0.00 46 1011.1
20260901172653 68 66 2.0 3.0 0.00 0.00 0.00 47 1011.1
20260901172153 68 358 2.0 4.0 0.00 0.00 0.00 47 1011.1
20260901171653 68 25 1.0 3.0 0.00 0.00 0.00 47 1011.1
20260901171153 67 356 1.0 2.0 0.00 0.00 0.00 46 1011.1
20260901170653 66 77 1.0 2.0 0.00 0.00 0.00 46 1011.1
20260901170153 65 37 1.0 3.0 0.00 0.00 0.00 48 1011.2
20260901165655 65 315 1.0 2.0 0.00 0.00 0.00 49 1011.2
20260901165154 66 307 2.0 3.0 0.00 0.00 0.00 47 1011.3
20260901164654 66 300 2.0 3.0 0.00 0.00 0.00 47 1011.3
20260901164155 66 55 1.0 3.0 0.00 0.00 0.00 47 1011.3
20260901163653 65 24 2.0 4.0 0.00 0.00 0.00 47 1011.3
20260901163154 64 49 3.0 3.0 0.00 0.00 0.00 48 1011.2
20260901162654 64 349 2.0 4.0 0.00 0.00 0.00 48 1011.2
20260901162153 64 353 1.0 2.0 0.00 0.00 0.00 48 1011.3
20260901161653 62 62 2.0 3.0 0.00 0.00 0.00 49 1011.3
20260901161154 61 86 1.0 3.0 0.00 0.00 0.00 52 1011.3
20260901160653 60 356 1.0 3.0 0.00 0.00 0.00 54 1011.3
20260901155653 59 339 2.0 4.0 0.00 0.00 0.00 55 1011.3
20260901155153 59 304 3.0 4.0 0.00 0.00 0.00 56 1011.2
20260901154653 59 318 4.0 5.0 0.00 0.00 0.00 57 1011.2
20260901154153 58 306 3.0 5.0 0.00 0.00 0.00 59 1011.3
20260901153654 58 321 4.0 5.0 0.00 0.00 0.00 58 1011.3
20260901153154 57 306 3.0 5.0 0.00 0.00 0.00 60 1011.4
20260901152654 56 276 3.0 5.0 0.00 0.00 0.00 61 1011.4
20260901152154 56 334 2.0 3.0 0.00 0.00 0.00 62 1011.4
20260901151654 55 303 3.0 5.0 0.00 0.00 0.00 64 1011.5
20260901151153 54 315 3.0 4.0 0.00 0.00 0.00 64 1011.5
20260901150653 54 296 4.0 6.0 0.00 0.00 0.00 65 1011.5
20260901150153 53 296 4.0 6.0 0.00 0.00 0.00 65 1011.6
20260901145654 53 341 1.0 2.0 0.00 0.00 0.00 67 1011.6
20260901145153 52 286 3.0 6.0 0.00 0.00 0.00 68 1011.7
20260901144653 52 285 4.0 6.0 0.00 0.00 0.00 68 1011.7
20260901144154 51 281 6.0 9.0 0.00 0.00 0.00 68 1011.7
20260901143654 51 281 3.0 5.0 0.00 0.00 0.00 69 1011.7
20260901143154 51 310 5.0 7.0 0.00 0.00 0.00 69 1011.7
20260901142653 51 289 3.0 5.0 0.00 0.00 0.00 70 1011.6
20260901142154 50 294 3.0 5.0 0.00 0.00 0.00 70 1011.6
20260901141653 50 299 3.0 5.0 0.00 0.00 0.00 71 1011.7
20260901141154 49 288 5.0 7.0 0.00 0.00 0.00 72 1011.7
20260901140653 49 312 3.0 4.0 0.00 0.00 0.00 73 1011.8
20260901140154 48 292 3.0 6.0 0.00 0.00 0.00 74 1011.8
20260901135656 49 301 5.0 7.0 0.00 0.00 0.00 74 1011.6
20260901135153 49 305 3.0 4.0 0.00 0.00 0.00 72 1011.6
20260901134654 49 301 4.0 6.0 0.00 0.00 0.00 72 1011.6
20260901134154 49 278 4.0 6.0 0.00 0.00 0.00 74 1011.5
20260901133654 49 272 4.0 5.0 0.00 0.00 0.00 73 1011.5
20260901132654 48 302 4.0 5.0 0.00 0.00 0.00 74 1011.5
20260901132154 47 291 4.0 6.0 0.00 0.00 0.00 76 1011.5
20260901131653 48 306 3.0 4.0 0.00 0.00 0.00 76 1011.5
20260901131153 47 296 4.0 6.0 0.00 0.00 0.00 75 1011.4
20260901130653 47 276 5.0 5.0 0.00 0.00 0.00 76 1011.4
20260901130154 47 255 4.0 5.0 0.00 0.00 0.00 76 1011.5
20260901125653 47 234 2.0 3.0 0.00 0.00 0.00 77 1011.5
20260901125153 46 283 5.0 7.0 0.00 0.00 0.00 77 1011.5
20260901124653 46 293 7.0 8.0 0.00 0.00 0.00 77 1011.4
20260901124154 46 299 6.0 8.0 0.00 0.00 0.00 77 1011.4
20260901123653 46 300 6.0 7.0 0.00 0.00 0.00 77 1011.4
20260901123153 46 295 5.0 6.0 0.00 0.00 0.00 77 1011.4
20260901122654 46 292 6.0 9.0 0.00 0.00 0.00 78 1011.4
20260901122154 46 296 7.0 8.0 0.00 0.00 0.00 78 1011.4
20260901121655 46 300 8.0 9.0 0.00 0.00 0.00 78 1011.4
20260901121153 46 296 7.0 9.0 0.00 0.00 0.00 78 1011.4
20260901120654 46 285 7.0 8.0 0.00 0.00 0.00 78 1011.5
20260901120154 46 289 5.0 7.0 0.00 0.00 0.00 78 1011.5
20260901115653 47 298 7.0 8.0 0.00 0.00 0.00 77 1011.6
20260901115154 47 299 5.0 7.0 0.00 0.00 0.00 76 1011.6
20260901114654 47 303 6.0 8.0 0.00 0.00 0.00 76 1011.6
20260901114153 47 294 6.0 8.0 0.00 0.00 0.00 76 1011.6
20260901113654 47 298 6.0 7.0 0.00 0.00 0.00 77 1011.6
20260901113154 46 320 5.0 6.0 0.00 0.00 0.00 77 1011.6
20260901112653 46 300 5.0 6.0 0.00 0.00 0.00 79 1011.7
20260901112153 46 320 3.0 3.0 0.00 0.00 0.00 79 1011.7
20260901111655 46 298 3.0 5.0 0.00 0.00 0.00 79 1011.7
20260901111153 47 303 5.0 6.0 0.00 0.00 0.00 78 1011.6
20260901110654 47 303 3.0 4.0 0.00 0.00 0.00 77 1011.6
20260901110153 47 318 2.0 3.0 0.00 0.00 0.00 77 1011.6
20260901105654 47 293 3.0 4.0 0.00 0.00 0.00 77 1011.6
20260901105156 48 304 3.0 5.0 0.00 0.00 0.00 77 1011.6
20260901104653 48 297 6.0 7.0 0.00 0.00 0.00 75 1011.6
20260901104153 49 314 4.0 5.0 0.00 0.00 0.00 74 1011.5
20260901103654 50 45 2.0 2.0 0.00 0.00 0.00 73 1011.6
20260901103153 50 298 1.0 2.0 0.00 0.00 0.00 72 1011.6
20260901102654 50 35 1.0 2.0 0.00 0.00 0.00 72 1011.6
20260901102153 50 284 4.0 6.0 0.00 0.00 0.00 71 1011.5
20260901101657 50 289 4.0 5.0 0.00 0.00 0.00 72 1011.5
20260901101153 50 271 2.0 4.0 0.00 0.00 0.00 72 1011.6
20260901100654 50 300 4.0 6.0 0.00 0.00 0.00 73 1011.5
20260901100153 49 288 5.0 7.0 0.00 0.00 0.00 74 1011.5
20260901095654 49 293 6.0 7.0 0.00 0.00 0.00 74 1011.5
20260901095154 49 275 4.0 6.0 0.00 0.00 0.00 74 1011.5
20260901094654 50 286 4.0 6.0 0.00 0.00 0.00 74 1011.5
20260901094153 50 295 4.0 5.0 0.00 0.00 0.00 73 1011.6
20260901093655 50 303 3.0 4.0 0.00 0.00 0.00 72 1011.7
20260901093154 50 319 3.0 4.0 0.00 0.00 0.00 72 1011.7
20260901092653 50 304 4.0 6.0 0.00 0.00 0.00 73 1011.6
20260901092154 51 299 5.0 8.0 0.00 0.00 0.00 72 1011.6
20260901091654 51 332 3.0 5.0 0.00 0.00 0.00 71 1011.6
20260901091154 50 293 3.0 4.0 0.00 0.00 0.00 73 1011.6
20260901090654 50 279 4.0 6.0 0.00 0.00 0.00 74 1011.6
20260901090154 50 283 5.0 8.0 0.00 0.00 0.00 75 1011.7
20260901085654 50 276 4.0 7.0 0.00 0.00 0.00 75 1011.8
20260901085154 50 289 4.0 7.0 0.00 0.00 0.00 74 1011.8
20260901084653 50 303 5.0 8.0 0.00 0.00 0.00 74 1011.8
20260901084153 50 284 6.0 9.0 0.00 0.00 0.00 74 1011.8
20260901083654 51 277 4.0 8.0 0.00 0.00 0.00 74 1011.8
20260901083154 51 284 2.0 4.0 0.00 0.00 0.00 73 1012.0
20260901082654 50 311 3.0 5.0 0.00 0.00 0.00 73 1011.8
20260901082154 50 320 3.0 4.0 0.00 0.00 0.00 75 1012.0
20260901081654 50 298 3.0 4.0 0.00 0.00 0.00 76 1012.0
20260901081153 50 302 4.0 5.0 0.00 0.00 0.00 77 1012.0
20260901080654 50 296 4.0 5.0 0.00 0.00 0.00 78 1012.1
20260901080153 50 282 3.0 4.0 0.00 0.00 0.00 78 1012.1
20260901075654 50 273 2.0 3.0 0.00 0.00 0.00 77 1012.1
20260901075154 51 250 2.0 3.0 0.00 0.00 0.00 76 1012.1
20260901074657 51 256 4.0 5.0 0.00 0.00 0.00 75 1012.1
20260901074157 51 251 4.0 4.0 0.00 0.00 0.00 76 1012.2
20260901073653 51 316 1.0 2.0 0.00 0.00 0.00 76 1012.2
20260901073154 52 15 1.0 2.0 0.00 0.00 0.00 74 1012.2
20260901072653 53 303 5.0 6.0 0.00 0.00 0.00 72 1012.1
20260901072154 52 289 5.0 8.0 0.00 0.00 0.00 72 1012.2
20260901071654 52 289 5.0 7.0 0.00 0.00 0.00 74 1012.2
20260901071156 52 297 4.0 6.0 0.00 0.00 0.00 74 1012.3
20260901070654 52 16 0.0 1.0 0.00 0.00 0.00 74 1012.3
20260901070154 52 49 2.0 3.0 0.00 0.00 0.00 74 1012.3
20260901065655 52 285 3.0 5.0 0.00 0.00 0.00 74 1012.2
20260901065153 52 260 3.0 5.0 0.00 0.00 0.00 74 1012.3
20260901064654 52 55 1.0 1.0 0.00 0.00 0.00 74 1012.4
20260901064153 52 282 3.0 4.0 0.00 0.00 0.00 74 1012.4
20260901063654 51 302 4.0 6.0 0.00 0.00 0.00 76 1012.4
20260901063154 51 275 4.0 5.0 0.00 0.00 0.00 76 1012.4
20260901062653 51 282 4.0 6.0 0.00 0.00 0.00 76 1012.3
20260901062153 52 283 4.0 6.0 0.00 0.00 0.00 76 1012.3
20260901061654 52 326 3.0 4.0 0.00 0.00 0.00 74 1012.4
20260901061154 53 357 2.0 2.0 0.00 0.00 0.00 72 1012.4
20260901060654 54 45 1.0 2.0 0.00 0.00 0.00 71 1012.4
20260901060153 54 358 1.0 2.0 0.00 0.00 0.00 71 1012.4
20260901055653 54 294 1.0 2.0 0.00 0.00 0.00 71 1012.4
20260901055153 54 38 1.0 2.0 0.00 0.00 0.00 70 1012.4
20260901054655 54 357 0.0 1.0 0.00 0.00 0.00 71 1012.5
20260901054155 54 66 1.0 1.0 0.00 0.00 0.00 70 1012.5
20260901053655 54 294 3.0 4.0 0.00 0.00 0.00 70 1012.5
20260901053154 54 278 5.0 7.0 0.00 0.00 0.00 70 1012.5
20260901052654 54 299 4.0 6.0 0.00 0.00 0.00 70 1012.5
20260901052153 55 311 3.0 5.0 0.00 0.00 0.00 69 1012.5
20260901051653 56 320 3.0 4.0 0.00 0.00 0.00 66 1012.6
20260901051154 56 327 2.0 3.0 0.00 0.00 0.00 66 1012.6
20260901050654 56 334 1.0 1.0 0.00 0.00 0.00 66 1012.6
20260901050154 57 332 1.0 2.0 0.00 0.00 0.00 65 1012.5
20260901045653 57 7 1.0 1.0 0.00 0.00 0.00 64 1012.5
20260901045153 58 66 3.0 4.0 0.00 0.00 0.00 64 1012.5
20260901044654 59 55 3.0 4.0 0.00 0.00 0.00 61 1012.4
20260901044153 59 266 2.0 3.0 0.00 0.00 0.00 59 1012.4
20260901043654 59 239 2.0 2.0 0.00 0.00 0.00 62 1012.5
20260901043153 59 295 1.0 1.0 0.00 0.00 0.00 61 1012.5
20260901042655 59 331 1.0 1.0 0.00 0.00 0.00 60 1012.5
20260901042154 60 60 2.0 3.0 0.00 0.00 0.00 59 1012.5
20260901041653 60 295 1.0 1.0 0.00 0.00 0.00 58 1012.5
20260901041153 61 53 1.0 3.0 0.00 0.00 0.00 56 1012.5
20260901040653 62 77 1.0 2.0 0.00 0.00 0.00 54 1012.4
20260901040153 62 188 1.0 1.0 0.00 0.00 0.00 53 1012.5
20260901035653 62 225 2.0 2.0 0.00 0.00 0.00 53 1012.5
20260901035153 63 72 3.0 3.0 0.00 0.00 0.00 52 1012.5
20260901034653 63 82 1.0 1.0 0.00 0.00 0.00 51 1012.5
20260901034153 63 162 1.0 2.0 0.00 0.00 0.00 51 1012.4
20260901033654 64 140 2.0 3.0 0.00 0.00 0.00 50 1012.4
20260901033153 64 156 1.0 2.0 0.00 0.00 0.00 50 1012.3
20260901032653 64 136 2.0 2.0 0.00 0.00 0.00 48 1012.3
20260901032153 65 106 2.0 3.0 0.00 0.00 0.00 48 1012.3
20260901031654 65 115 1.0 3.0 0.00 0.00 0.00 47 1012.3
20260901031154 65 131 2.0 3.0 0.00 0.00 0.00 46 1012.2
20260901030653 65 131 2.0 4.0 0.00 0.00 0.00 46 1012.1
20260901030156 66 111 3.0 5.0 0.00 0.00 0.00 45 1012.1
20260901025654 66 82 3.0 4.0 0.00 0.00 0.00 45 1012.1
20260901025153 66 93 3.0 5.0 0.00 0.00 0.00 45 1012.0
20260901024653 66 98 2.0 3.0 0.00 0.00 0.00 45 1012.0
20260901024158 67 81 3.0 5.0 0.00 0.00 0.00 44 1012.0
20260901023655 67 69 3.0 4.0 0.00 0.00 0.00 43 1012.0
20260901023154 67 65 2.0 3.0 0.00 0.00 0.00 43 1011.8
20260901022653 68 111 2.0 3.0 0.00 0.00 0.00 42 1012.0
20260901022155 68 100 1.0 2.0 0.00 0.00 0.00 41 1012.0
20260901021654 68 97 2.0 4.0 0.00 0.00 0.00 41 1012.1
20260901021154 69 135 3.0 3.0 0.00 0.00 0.00 40 1012.1
20260901020653 69 105 2.0 5.0 0.00 0.00 0.00 39 1012.0
20260901020154 69 154 3.0 3.0 0.00 0.00 0.00 39 1012.0
20260901015654 70 159 2.0 4.0 0.00 0.00 0.00 39 1012.0
20260901015153 70 140 2.0 4.0 0.00 0.00 0.00 38 1012.0
20260901014654 71 105 3.0 5.0 0.00 0.00 0.00 38 1012.0
20260901014154 71 161 3.0 4.0 0.00 0.00 0.00 36 1012.0
20260901013654 71 137 2.0 3.0 0.00 0.00 0.00 36 1012.0
20260901013154 71 100 4.0 7.0 0.00 0.00 0.00 36 1012.0
20260901012653 71 111 3.0 5.0 0.00 0.00 0.00 36 1012.0
20260901012154 71 107 4.0 6.0 0.00 0.00 0.00 36 1012.0
20260901011654 71 90 3.0 5.0 0.00 0.00 0.00 37 1012.0
20260901011153 71 77 7.0 9.0 0.00 0.00 0.00 36 1012.0
20260901010653 72 85 5.0 8.0 0.00 0.00 0.00 36 1012.0
20260901010156 72 104 3.0 5.0 0.00 0.00 0.00 35 1012.0
20260901005654 72 103 6.0 10.0 0.00 0.00 0.00 35 1012.1
20260901005154 72 97 2.0 5.0 0.00 0.00 0.00 35 1012.1